Stations météo

réclame
Mon MeteoGroup
Kahler Asten, Allemagne (10427): Température de l'air & dewpoint: 16.06.2018 19:00:00 - 22.06.2018 19:00:00 (CEST)Kahler Asten, Allemagne (10427): Température de l'air 5cm & Température de l'air -5cm: 16.06.2018 19:00:00 - 22.06.2018 19:00:00 (CEST)Kahler Asten, Allemagne (10427): Température de l'air -20cm & Température de l'air -100cm: 16.06.2018 19:00:00 - 22.06.2018 19:00:00 (CEST)Kahler Asten, Allemagne (10427): Vitesse du vent & gusts: 16.06.2018 19:00:00 - 22.06.2018 19:00:00 (CEST)Kahler Asten, Allemagne (10427): Direction du vent: 16.06.2018 19:00:00 - 22.06.2018 19:00:00 (CEST)Kahler Asten, Allemagne (10427): visibility: 16.06.2018 19:00:00 - 22.06.2018 19:00:00 (CEST)Kahler Asten, Allemagne (10427): Ensoleillement: 16.06.2018 19:00:00 - 22.06.2018 19:00:00 (CEST)Kahler Asten, Allemagne (10427): Quantités de précipitations: 16.06.2018 19:00:00 - 22.06.2018 19:00:00 (CEST)
Date & Time tt [°C] td [°C] tt 5cm [°C] tt -5cm [°C] tt -20cm [°C] tt -100cm [°C] ff [km/h] ff [knt] fx [km/h] fx [knt] dd vv [km] sd [min] rr [mm]
22.06.2018 19:00:00 7,8 6,8 8,0 12,1 12,8 13,2 22 12 41 22 WNW 20 5 0,0
22.06.2018 18:00:00 8,2 6,7 8,9 12,5 12,7 13,2 30 16 50 27 NW 28 11 0,2
22.06.2018 17:00:00 7,0 6,6 8,7 11,3 12,7 13,2 21 11 47 26 WNW 19 0 4,3
22.06.2018 16:00:00 7,8 6,9 8,9 13,0 12,5 13,2 21 11 50 27 WNW 15 5 0,1
22.06.2018 15:00:00 7,2 6,1 7,4 12,5 12,4 13,2 32 17 50 27 NW 14 3 0,3
22.06.2018 14:00:00 6,9 6,0 7,5 12,3 12,3 13,2 30 16 58 31 WNW 4,7 7 0,3
22.06.2018 13:00:00 6,0 5,6 6,4 11,1 12,2 13,2 34 18 58 32 WNW 6 1 0,1
22.06.2018 12:00:00 5,9 5,0 6,7 10,7 12,2 13,2 33 18 56 30 WNW 21 1 0,0
22.06.2018 11:00:00 5,4 5,0 6,6 9,4 12,4 13,1 37 20 68 37 NW 9 0 0,1
22.06.2018 10:00:00 5,0 4,7 5,5 8,8 12,6 13,1 29 16 59 32 WNW 8 0 1,4
22.06.2018 09:00:00 4,4 3,9 4,6 8,4 12,8 13,1 36 19 63 34 WNW 4,3 0 1,8
22.06.2018 08:00:00 4,4 3,6 4,4 8,7 13,1 13,1 37 20 66 35 WNW 12 0 0,1
22.06.2018 07:00:00 4,5 4,2 4,6 8,9 13,3 13,1 35 19 60 32 WNW 0,5 0 0,7
22.06.2018 06:00:00 4,3 4,0 4,5 9,0 13,6 13,1 27 15 48 26 W 0,3 0 0,0
22.06.2018 05:00:00 4,2 3,9 4,3 9,2 14,0 13,1 29 16 49 26 W 2,0 0 0,0
22.06.2018 04:00:00 4,1 3,6 4,2 9,5 14,3 13,1 29 16 50 27 WNW 4,8 0 0,0
22.06.2018 03:00:00 4,3 3,3 4,1 9,9 14,7 13,1 30 16 60 33 W 18 0 0,0
22.06.2018 02:00:00 4,6 3,9 4,6 10,4 15,2 13,1 31 17 55 30 WNW 12 0 0,0
22.06.2018 01:00:00 5,0 4,1 4,9 10,9 15,6 13,1 32 17 50 27 WNW 20 0 0,0
22.06.2018 00:00:00 5,2 4,6 5,1 11,5 16,1 13,1 37 20 60 33 NW 24 0 0,2
21.06.2018 23:00:00 5,3 4,5 5,0 12,2 16,5 13,1 31 17 55 30 NW 32 0 0,4
21.06.2018 22:00:00 6,4 3,9 5,5 13,8 16,9 13,1 27 15 58 31 WNW 2,8 2 0,0
21.06.2018 21:00:00 7,9 2,7 7,6 15,2 17,2 13,1 29 16 54 29 NW 70 5 0,0
21.06.2018 20:00:00 9,2 2,5 9,5 16,7 17,3 13,0 30 16 56 30 WNW 70 29 0,0
21.06.2018 19:00:00 10,3 1,8 12,3 17,4 17,3 13,0 35 19 56 30 NW 46 25 0,0
21.06.2018 18:00:00 10,6 1,7 13,4 19,2 17,1 13,0 41 22 64 34 NW 53 40 0,0
21.06.2018 17:00:00 11,6 2,1 15,0 20,3 16,9 13,0 35 19 64 35 WNW 44 51 0,0
21.06.2018 16:00:00 11,5 2,5 13,3 20,2 16,6 13,0 37 20 55 30 WNW 27 28 0,0
21.06.2018 15:00:00 12,3 3,6 14,3 20,4 16,4 13,0 38 21 63 34 WNW 38 42 0,0
21.06.2018 14:00:00 13,0 5,8 16,7 19,2 16,2 13,0 37 20 63 34 WNW 22 38 0,0
21.06.2018 13:00:00 11,2 8,0 12,1 16,9 16,2 13,0 40 22 65 35 WNW 27 16 0,0
21.06.2018 12:00:00 11,8 11,0 12,7 16,0 16,3 13,0 32 17 61 33 W 7 0 0,0
21.06.2018 11:00:00 11,8 11,4 12,2 15,6 16,4 13,0 33 18 56 30 WNW 6 0 1,5
21.06.2018 10:00:00 12,8 12,5 12,8 16,5 16,5 13,0 35 19 55 30 W 0,3 1 0,2
21.06.2018 09:00:00 14,1 11,9 15,5 17,2 16,5 13,0 28 15 43 23 WSW 36 33 0,0
21.06.2018 08:00:00 13,6 12,2 14,5 16,2 16,6 13,0 22 12 38 20 SW 12 11 0,0
21.06.2018 07:00:00 13,8 12,0 14,1 15,3 16,8 13,0 22 12 32 17 W 15 38 0,0
21.06.2018 06:00:00 14,2 11,7 13,2 14,8 17,2 13,0 18 10 27 15 WSW 18 0 0,0
21.06.2018 05:00:00 14,3 11,5 12,3 15,0 17,5 13,0 19 10 23 13 WSW 23 0 0,0
21.06.2018 04:00:00 14,7 11,4 11,5 15,6 17,9 13,0 12 7 18 10 WSW 49 0 0,0
21.06.2018 03:00:00 15,6 11,4 13,4 16,1 18,2 13,0 13 7 19 10 W 56 0 0,0
21.06.2018 02:00:00 16,1 11,4 13,7 16,7 18,6 13,0 15 8 19 10 W 65 0 0,0
21.06.2018 01:00:00 16,6 11,6 13,9 17,4 19,0 13,0 14 8 19 10 W 69 0 0,0
21.06.2018 00:00:00 17,3 11,5 14,9 18,2 19,4 13,0 15 8 19 10 W 67 0 0,0
20.06.2018 23:00:00 17,6 11,2 14,3 19,1 19,8 13,0 13 7 17 9 W 69 0 0,0
20.06.2018 22:00:00 18,3 11,3 15,2 20,5 20,1 13,0 11 6 18 10 W 70 21 0,0
20.06.2018 21:00:00 19,8 11,4 18,0 22,2 20,2 13,0 15 8 26 14 W 62 60 0,0
20.06.2018 20:00:00 21,0 11,4 21,2 23,8 20,1 13,0 17 9 29 15 W 32 60 0,0
20.06.2018 19:00:00 21,7 11,6 24,0 25,2 19,7 13,0 16 8 28 15 W 30 59 0,0
20.06.2018 18:00:00 22,0 11,4 25,2 26,4 19,2 13,0 16 8 29 15 W 37 60 0,0
20.06.2018 17:00:00 21,8 11,8 26,4 27,9 18,5 13,0 17 9 33 18 W 34 60 0,0
20.06.2018 16:00:00 21,6 12,0 26,7 28,6 17,6 13,0 14 8 29 16 SW 38 60 0,0
20.06.2018 15:00:00 21,4 12,8 26,9 28,3 16,6 13,0 15 8 27 15 WSW 70 56 0,0
20.06.2018 14:00:00 20,1 12,6 24,9 27,4 15,7 13,0 14 8 31 17 SW 30 59 0,0
20.06.2018 13:00:00 18,9 13,2 24,7 25,0 14,9 13,0 14 7 30 16 W 34 53 0,0
20.06.2018 12:00:00 17,4 12,5 20,2 20,8 14,4 13,0 14 7 30 16 WSW 50 15 0,0
20.06.2018 11:00:00 15,8 11,4 18,5 17,5 14,1 13,0 15 8 27 15 WSW 65 1 0,0
20.06.2018 10:00:00 14,9 11,6 15,3 16,3 13,9 13,0 12 7 22 12 SSW 40 0 0,0
20.06.2018 09:00:00 13,9 13,0 14,4 14,7 13,8 13,0 13 7 18 10 S 9 0 0,0
20.06.2018 08:00:00 13,4 12,8 13,7 13,7 13,7 13,0 8 5 14 7 S 6 0 0,0
20.06.2018 07:00:00 12,8 12,3 12,6 12,6 13,8 13,0 8 5 12 6 S 4,8 0 0,0
20.06.2018 06:00:00 12,8 12,6 12,5 11,6 14,0 13,0 7 4 11 6 SSW 0,1 0 0,0
20.06.2018 05:00:00 12,7 12,2 9,8 11,8 14,2 13,0 11 6 16 9 W 2,8 0 0,0
20.06.2018 04:00:00 13,0 11,9 10,8 12,1 14,4 13,0 15 8 17 9 W 10 0 0,0
20.06.2018 03:00:00 12,6 12,1 10,2 12,4 14,7 13,0 15 8 16 9 WNW 6 0 0,0
20.06.2018 02:00:00 12,8 12,1 11,2 12,8 14,9 13,0 16 8 20 11 NW 8 0 0,0
20.06.2018 01:00:00 13,0 12,7 11,7 13,2 15,1 13,0 17 9 21 11 WNW 3,3 0 0,0
20.06.2018 00:00:00 13,0 12,6 11,9 13,7 15,3 13,0 15 8 20 11 W 4,5 0 0,0
19.06.2018 23:00:00 13,3 12,6 12,0 14,3 15,5 13,0 16 9 19 11 W 8 0 0,0
19.06.2018 22:00:00 13,4 12,8 12,5 15,1 15,6 13,0 17 9 21 11 W 8 0 0,0
19.06.2018 21:00:00 14,2 12,8 13,3 16,1 15,6 13,0 13 7 18 10 W 16 28 0,0
19.06.2018 20:00:00 14,9 13,3 15,9 16,9 15,5 13,0 13 7 20 11 SW 17 3 0,0
19.06.2018 19:00:00 14,7 13,1 15,8 17,0 15,4 13,0 14 7 21 12 W 23 0 0,0
19.06.2018 18:00:00 14,4 12,8 14,8 17,4 15,3 13,0 13 7 27 14 WNW 18 0 0,0
19.06.2018 17:00:00 14,5 13,0 15,5 17,4 15,1 13,0 16 9 28 15 W 17 0 0,0
19.06.2018 16:00:00 14,6 13,1 16,1 17,8 14,9 13,0 18 10 30 16 W 20 0 0,0
19.06.2018 15:00:00 14,4 12,9 15,7 17,1 14,7 13,0 21 11 32 17 W 17 0 0,0
19.06.2018 14:00:00 13,5 13,1 14,6 16,3 14,5 13,0 17 9 26 14 W 2,5 0 0,0
19.06.2018 13:00:00 13,1 12,9 14,3 15,7 14,4 13,0 15 8 27 14 W 0,4 0 0,0
19.06.2018 12:00:00 12,4 12,2 13,5 14,8 14,3 13,0 17 9 26 14 W 0,2 0 0,0
19.06.2018 11:00:00 12,0 11,8 12,6 14,4 14,3 13,0 12 7 23 12 WSW 0,7 0 0,0
19.06.2018 10:00:00 11,7 11,3 12,5 14,0 14,3 13,0 15 8 22 12 WSW 3,3 0 0,0
19.06.2018 09:00:00 11,5 10,9 12,3 13,7 14,3 13,0 16 8 29 15 WSW 6 0 0,0
19.06.2018 08:00:00 11,1 10,6 11,7 13,4 14,4 13,0 21 12 31 17 WSW 5 0 0,0
19.06.2018 07:00:00 10,9 10,4 11,2 13,1 14,6 13,0 25 13 34 19 W 4,4 0 0,0
19.06.2018 06:00:00 10,8 10,3 10,8 12,9 14,7 13,0 26 14 42 23 W 3,9 0 0,0
19.06.2018 05:00:00 11,1 10,3 10,9 13,2 14,9 13,0 29 16 48 26 W 5 0 0,0
19.06.2018 04:00:00 11,6 10,3 11,2 13,6 15,1 13,0 23 13 49 26 WSW 9 0 0,0
19.06.2018 03:00:00 12,5 11,0 12,2 14,2 15,2 13,0 30 16 50 27 W 12 0 0,0
19.06.2018 02:00:00 13,1 12,4 13,0 14,5 15,3 13,0 25 14 42 23 W 8 0 0,0
19.06.2018 01:00:00 13,2 12,5 13,2 14,7 15,5 13,0 20 11 32 17 WSW 12 0 0,0
19.06.2018 00:00:00 13,2 12,2 13,0 14,8 15,6 13,0 21 11 30 16 SW 17 0 0,0
18.06.2018 23:00:00 13,4 12,1 13,2 15,1 15,7 13,0 15 8 29 16 SW 26 0 0,0
18.06.2018 22:00:00 13,6 11,9 13,4 15,5 15,9 13,0 18 10 26 14 SW 33 0 0,0
18.06.2018 21:00:00 14,0 11,8 13,4 16,2 15,9 13,0 16 9 31 17 SW 42 0 0,0
18.06.2018 20:00:00 14,2 11,8 14,3 16,6 16,0 13,0 18 10 30 16 SW 62 0 0,0
18.06.2018 19:00:00 14,3 11,8 14,6 17,2 15,9 13,0 18 10 29 16 SW 54 0 0,0
18.06.2018 18:00:00 14,6 11,3 15,5 17,8 15,8 13,0 18 10 31 17 WSW 56 0 0,0
18.06.2018 17:00:00 14,7 11,1 16,3 18,4 15,6 13,0 16 8 31 17 SW 57 0 0,0
18.06.2018 16:00:00 14,8 10,7 16,8 19,1 15,3 13,0 18 10 32 17 WSW 54 1 0,0
18.06.2018 15:00:00 14,7 10,9 16,5 18,4 15,0 13,0 19 11 33 18 SW 54 0 0,0
18.06.2018 14:00:00 14,2 10,0 15,7 17,9 14,7 13,0 22 12 36 19 SW 70 2 0,0
18.06.2018 13:00:00 13,8 10,2 15,6 17,2 14,5 13,0 23 12 36 19 SW 53 1 0,0
18.06.2018 12:00:00 13,5 9,9 15,7 17,0 14,2 13,0 19 10 31 17 WSW 56 1 0,0
18.06.2018 11:00:00 12,9 9,6 14,9 16,3 14,0 13,0 19 10 36 19 SW 55 10 0,0
18.06.2018 10:00:00 11,5 8,9 13,3 13,5 14,0 13,0 21 11 35 19 SW 41 0 0,0
18.06.2018 09:00:00 10,4 8,7 11,0 12,8 14,0 13,0 19 10 29 16 WSW 25 0 0,0
18.06.2018 08:00:00 9,5 8,1 10,1 12,1 14,2 13,0 16 8 24 13 WSW 25 0 0,0
18.06.2018 07:00:00 9,0 7,7 9,0 12,0 14,3 13,0 14 8 20 11 SW 18 0 0,0
18.06.2018 06:00:00 9,1 7,5 9,2 12,0 14,5 13,0 13 7 22 12 WSW 27 0 0,0
18.06.2018 05:00:00 9,2 7,5 9,1 12,0 14,7 13,0 16 9 22 12 WSW 29 0 0,0
18.06.2018 04:00:00 9,4 7,5 9,2 12,2 15,0 13,0 14 8 23 12 SW 28 0 0,0
18.06.2018 03:00:00 9,2 7,3 9,2 12,4 15,2 13,0 13 7 19 10 WSW 32 0 0,0
18.06.2018 02:00:00 8,9 7,1 8,8 12,5 15,6 13,0 13 7 27 14 W 29 0 0,0
18.06.2018 01:00:00 8,9 7,0 8,7 12,5 16,0 13,0 21 11 32 17 W 30 0 0,0
18.06.2018 00:00:00 8,7 6,6 7,6 13,1 16,4 13,0 18 10 32 17 W 39 0 0,0
17.06.2018 23:00:00 9,4 6,6 8,2 14,2 16,7 13,0 21 11 31 17 W 52 0 0,0
17.06.2018 22:00:00 10,4 6,9 10,1 15,4 17,0 13,0 21 11 35 19 W 59 0 0,0
17.06.2018 21:00:00 11,1 7,9 10,6 16,5 17,2 13,0 16 8 36 19 W 48 0 0,0
17.06.2018 20:00:00 12,1 8,0 12,4 17,9 17,2 13,0 20 11 33 18 W 51 2 0,0
17.06.2018 19:00:00 13,2 8,7 14,5 18,7 17,2 13,0 23 12 33 18 W 59 1 0,0
17.06.2018 18:00:00 13,9 8,5 15,2 19,8 17,1 13,0 23 12 31 17 W 43 8 0,0
17.06.2018 17:00:00 14,3 8,7 15,7 20,0 16,9 13,0 21 11 31 17 W 54 0 0,0
17.06.2018 16:00:00 14,2 8,0 15,2 20,4 16,7 13,0 18 10 32 17 W 53 11 0,0
17.06.2018 15:00:00 14,9 8,6 17,8 21,1 16,4 13,0 20 11 38 21 WSW 48 10 0,0
17.06.2018 14:00:00 14,1 8,0 16,8 20,5 16,0 13,0 21 12 39 21 W 32 4 0,0
17.06.2018 13:00:00 13,2 7,9 14,8 20,3 15,7 13,0 23 13 42 23 WSW 41 21 0,0
17.06.2018 12:00:00 13,0 8,1 14,7 19,8 15,4 12,9 29 15 50 27 WSW 31 36 0,0
17.06.2018 11:00:00 12,8 8,1 14,4 18,0 15,2 12,9 21 11 39 21 WSW 40 23 0,0
17.06.2018 10:00:00 11,6 8,8 13,1 17,1 15,1 12,9 19 11 39 21 W 38 27 0,0
17.06.2018 09:00:00 11,4 9,3 13,8 15,9 15,1 12,9 18 10 30 16 W 26 37 0,0
17.06.2018 08:00:00 10,2 8,6 11,1 14,3 15,2 12,9 23 12 33 18 W 13 56 0,0
17.06.2018 07:00:00 9,8 8,7 10,0 13,3 15,4 12,9 22 12 38 21 W 8 33 0,0
17.06.2018 06:00:00 10,0 9,5 9,9 13,2 15,7 12,9 21 11 31 17 W 2,2 0 0,0
17.06.2018 05:00:00 10,9 10,5 10,7 13,9 15,9 12,9 20 11 31 17 W 1,7 0 0,0
17.06.2018 04:00:00 11,6 11,4 11,6 14,2 16,2 12,9 20 11 34 19 W 0,1 0 0,0
17.06.2018 03:00:00 12,0 11,9 12,0 14,5 16,5 12,9 17 9 31 17 W 0,2 0 0,0
17.06.2018 02:00:00 12,0 11,8 11,8 14,8 16,7 12,9 17 9 26 14 W 0,3 0 0,0
17.06.2018 01:00:00 12,7 12,5 12,6 15,5 17,0 12,9 18 10 30 16 W 0,4 0 0,9
17.06.2018 00:00:00 13,6 12,2 12,8 16,1 17,3 12,9 16 9 29 16 WNW 16 0 0,1
16.06.2018 23:00:00 15,2 11,1 14,2 16,8 17,5 12,9 15 8 24 13 WNW 58 0 0,0
16.06.2018 22:00:00 16,0 10,7 14,2 17,6 17,7 12,9 16 9 22 12 SW 38 0 0,0
16.06.2018 21:00:00 16,8 10,0 16,0 18,4 17,8 12,9 14 7 19 10 SSW 60 0 0,0
16.06.2018 20:00:00 17,5 9,9 16,4 19,4 17,8 12,9 14 7 25 13 SSW 67 26 0,0
16.06.2018 19:00:00 18,7 9,9 18,8 20,5 17,8 12,9 15 8 26 14 SSW 70 37 0,0

tt = Température de l'air
td = dewpoint
tt 5cm = Température de l'air 5cm
tt -5cm = Température de l'air -5cm
tt -20cm = Température de l'air -20cm
tt -100cm = Température de l'air -100cm
ff = Vitesse du vent
fx = gusts
dd = Direction du vent
vv = visibility
sd = Ensoleillement
rr = Quantités de précipitations

stations d'obs. à proximité